Location: Fisheating Creek Campgrounds
(26.9333°N, 81.3167°W)
Time: 01:45:55
(UTC-04:00)

Cosmos 2221 Rocket - Visible Passes

Search period start: 27 May 2015 00:00
Search period end: 06 June 2015 00:00
Orbit: 620 x 650 km, 82.5° (Epoch: 26 May)

Date Brightness Start Highest point End Pass type
(mag) Time Alt. Az. Time Alt. Az. Time Alt. Az.
27 May 6.8 02:22:02 10° NE 02:22:04 10° NE 02:22:04 10° NE visible
28 May 6.5 02:43:21 10° N 02:44:05 14° NNE 02:44:05 14° NNE visible
29 May 6.3 03:05:31 10° N 03:06:07 14° N 03:06:07 14° N visible
31 May 6.7 02:12:35 10° NNE 02:12:47 11° NNE 02:12:47 11° NNE visible
01 Jun 6.6 02:34:33 10° N 02:34:53 12° N 02:34:53 12° N visible
04 Jun 6.7 02:03:38 10° N 02:03:46 11° N 02:03:46 11° N visible
